Location: Bachas
(43.2439°N, 0.9375°E)
Time: 09:11:12
(UTC+00:00)

STARLINK-1093 - Pass Details

Date: 18 February 2020
Orbit: 374 x 385 km, 53.0° (Epoch: 04 April)

Event Time Altitude Azimuth Distance (km) Brightness Sun altitude
Exits shadow 04:19:30 15° 101° (E) 1,150 6.0 -28.1°
Drops below altitude 10° 04:20:31 10° 85° (E) 1,413 6.7 -28.0°
Enters shadow 05:17:41 -67° 235° (SW) 12,152 10.4 -17.6°
Maximum altitude 05:53:50 49° 329° (NNW) 505 3.2 -11.0°
